Total_Precipitation_Accumulation
0.24 0.03 0.07 0.21 0.10 0.11 0.06 0.03 0.02 0.06 0.09 0.05 0.04 0.04 0.01 0.00 0.02 0.02 0.01 0.02 0.01 0.00 0.00 0.00 0.00 0.01 0.03 0.00 0.00 0.00 0.02 0.05 0.02 0.04 0.13 0.08 0.14 0.10 0.17 0.28 0.19 0.33 0.30
0.12 0.06 0.07 0.20 0.07 0.12 0.14 0.08 0.04 0.06 0.07 0.04 0.03 0.02 0.01 0.00 0.01 0.01 0.00 0.01 0.01 0.01 0.00 0.00 0.00 0.00 0.03 0.01 0.00 0.00 0.01 0.05 0.05 0.03 0.10 0.17 0.23 0.14 0.17 0.21 0.19 0.37 0.43
0.07 0.04 0.08 0.22 0.04 0.06 0.11 0.11 0.06 0.02 0.01 0.01 0.01 0.00 0.00 0.00 0.00 0.00 0.00 0.00 0.01 0.00 0.00 0.00 0.00 0.00 0.01 0.01 0.00 0.00 0.00 0.02 0.05 0.06 0.13 0.13 0.09 0.27 0.28 0.19 0.16 0.23 0.28
0.06 0.04 0.04 0.13 0.05 0.01 0.03 0.01 0.01 0.02 0.00 0.00 0.00 0.00 0.00 0.00 0.00 0.00 0.00 0.00 0.00 0.00 0.00 0.00 0.00 0.00 0.00 0.00 0.01 0.00 0.01 0.03 0.05 0.06 0.08 0.08 0.12 0.31 0.37 0.18 0.16 0.19 0.31
0.13 0.03 0.08 0.11 0.11 0.05 0.01 0.01 0.02 0.03 0.02 0.01 0.01 0.01 0.01 0.00 0.00 0.00 0.00 0.00 0.00 0.00 0.00 0.00 0.00 0.00 0.00 0.00 0.00 0.00 0.00 0.02 0.02 0.02 0.10 0.16 0.44 0.68 0.33 0.23 0.15 0.13 0.21
0.25 0.15 0.21 0.33 0.29 0.07 0.00 0.00 0.00 0.00 0.00 0.00 0.00 0.00 0.00 0.00 0.00 0.00 0.00 0.00 0.00 0.00 0.00 0.00 0.00 0.00 0.00 0.00 0.00 0.00 0.00 0.00 0.02 0.00 0.06 0.38 0.42 0.87 1.04 0.30 0.19 0.21 0.17
0.96 0.66 0.58 1.02 0.74 0.11 0.00 0.00 0.00 0.00 0.00 0.00 0.00 0.00 0.00 0.00 0.00 0.00 0.00 0.00 0.00 0.00 0.00 0.00 0.00 0.00 0.00 0.00 0.00 0.00 0.00 0.01 0.01 0.00 0.15 0.52 1.16 0.85 1.12 0.88 0.23 0.22 0.21
2.44 2.34 1.47 1.44 1.02 0.11 0.00 0.00 0.00 0.00 0.00 0.00 0.00 0.00 0.00 0.00 0.00 0.00 0.00 0.00 0.00 0.00 0.00 0.00 0.00 0.00 0.00 0.00 0.00 0.00 0.00 0.00 0.00 0.03 0.09 0.38 0.86 0.51 0.35 0.37 0.20 0.14 0.10
4.04 3.27 3.51 1.30 0.48 0.07 0.00 0.00 0.00 0.00 0.00 0.00 0.00 0.00 0.00 0.00 0.00 0.00 0.00 0.00 0.00 0.00 0.00 0.00 0.00 0.00 0.00 0.00 0.00 0.00 0.00 0.00 0.00 0.01 0.02 0.05 0.06 0.16 0.28 0.26 0.22 0.16 0.12
6.07 3.82 2.80 1.36 0.28 0.04 0.00 0.00 0.00 0.00 0.00 0.00 0.00 0.00 0.00 0.00 0.00 0.00 0.00 0.00 0.00 0.00 0.00 0.00 0.00 0.00 0.00 0.00 0.00 0.00 0.00 0.00 0.00 0.00 0.00 0.00 0.04 0.12 0.29 0.29 0.19 0.18 0.17
2.90 2.84 2.08 0.83 0.14 0.01 0.00 0.00 0.00 0.00 0.00 0.00 0.00 0.00 0.00 0.00 0.00 0.00 0.00 0.00 0.00 0.00 0.00 0.00 0.00 0.00 0.00 0.00 0.00 0.00 0.00 0.00 0.00 0.00 0.00 0.00 0.02 0.06 0.09 0.20 0.19 0.12 0.17
1.88 1.26 0.65 0.26 0.04 0.01 0.00 0.00 0.00 0.00 0.00 0.00 0.00 0.00 0.02 0.01 0.00 0.00 0.00 0.00 0.00 0.00 0.00 0.00 0.00 0.00 0.00 0.00 0.00 0.00 0.00 0.00 0.00 0.00 0.00 0.00 0.00 0.00 0.00 0.01 0.04 0.12 0.20
0.76 0.63 0.41 0.14 0.05 0.01 0.00 0.00 0.00 0.00 0.00 0.00 0.02 0.03 0.03 0.00 0.01 0.02 0.00 0.00 0.00 0.00 0.00 0.00 0.00 0.00 0.00 0.00 0.00 0.00 0.00 0.00 0.00 0.00 0.00 0.00 0.00 0.00 0.00 0.00 0.00 0.01 0.07
0.20 0.24 0.17 0.06 0.03 0.00 0.00 0.00 0.00 0.01 0.04 0.06 0.07 0.03 0.01 0.02 0.04 0.00 0.00 0.00 0.00 0.00 0.00 0.00 0.00 0.00 0.00 0.00 0.00 0.00 0.00 0.00 0.00 0.00 0.00 0.00 0.00 0.00 0.00 0.00 0.00 0.00 0.02
0.03 0.03 0.05 0.01 0.00 0.00 0.00 0.00 0.01 0.08 0.07 0.09 0.08 0.03 0.00 0.00 0.00 0.00 0.00 0.00 0.00 0.00 0.00 0.00 0.00 0.00 0.00 0.00 0.00 0.00 0.00 0.00 0.00 0.00 0.00 0.00 0.00 0.00 0.00 0.00 0.00 0.00 0.00
0.00 0.01 0.03 0.05 0.03 0.00 0.01 0.06 0.12 0.17 0.14 0.15 0.26 0.14 0.04 0.02 0.01 0.00 0.00 0.00 0.00 0.00 0.00 0.00 0.00 0.00 0.00 0.00 0.00 0.00 0.00 0.00 0.00 0.00 0.00 0.00 0.00 0.00 0.00 0.00 0.00 0.00 0.00
0.00 0.01 0.13 0.56 0.13 0.05 0.03 0.07 0.13 0.04 0.05 0.15 0.20 0.13 0.02 0.00 0.02 0.00 0.00 0.00 0.00 0.00 0.00 0.00 0.00 0.00 0.00 0.00 0.00 0.00 0.00 0.00 0.00 0.00 0.00 0.00 0.00 0.00 0.00 0.00 0.00 0.00 0.00
0.01 0.06 0.43 0.76 0.44 0.15 0.08 0.13 0.13 0.16 0.10 0.16 0.15 0.07 0.04 0.03 0.03 0.01 0.00 0.00 0.00 0.00 0.00 0.00 0.00 0.00 0.00 0.00 0.00 0.00 0.00 0.00 0.00 0.00 0.00 0.00 0.00 0.00 0.00 0.00 0.00 0.00 0.00
0.03 0.15 0.43 0.54 0.57 0.56 0.56 0.53 0.26 0.09 0.09 0.16 0.07 0.02 0.02 0.01 0.00 0.00 0.00 0.00 0.00 0.00 0.00 0.00 0.00 0.00 0.00 0.00 0.00 0.00 0.00 0.00 0.00 0.00 0.00 0.00 0.00 0.00 0.00 0.00 0.00 0.00 0.00
0.08 0.31 0.54 0.61 0.93 1.15 0.67 0.22 0.08 0.09 0.08 0.08 0.04 0.02 0.01 0.00 0.00 0.00 0.00 0.00 0.00 0.00 0.00 0.00 0.00 0.00 0.00 0.00 0.00 0.00 0.00 0.00 0.00 0.00 0.00 0.00 0.00 0.00 0.00 0.00 0.00 0.00 0.00
0.18 0.41 0.62 0.96 0.92 0.32 0.10 0.07 0.05 0.06 0.12 0.12 0.04 0.00 0.00 0.00 0.00 0.00 0.00 0.00 0.00 0.00 0.00 0.00 0.00 0.00 0.00 0.00 0.00 0.00 0.00 0.00 0.00 0.00 0.00 0.00 0.00 0.00 0.00 0.00 0.00 0.00 0.00
0.44 0.44 0.31 0.14 0.12 0.02 0.02 0.05 0.05 0.06 0.09 0.08 0.01 0.00 0.00 0.00 0.00 0.00 0.00 0.00 0.00 0.00 0.00 0.00 0.00 0.00 0.00 0.00 0.00 0.00 0.00 0.00 0.00 0.00 0.00 0.00 0.00 0.00 0.00 0.00 0.00 0.00 0.00
0.05 0.02 0.06 0.08 0.13 0.04 0.02 0.01 0.01 0.05 0.08 0.04 0.01 0.00 0.00 0.00 0.00 0.00 0.00 0.00 0.00 0.00 0.00 0.00 0.00 0.00 0.00 0.00 0.00 0.00 0.00 0.00 0.00 0.00 0.00 0.00 0.02 0.01 0.01 0.01 0.01 0.01 0.00
0.02 0.03 0.06 0.11 0.14 0.04 0.01 0.00 0.01 0.05 0.07 0.05 0.01 0.00 0.00 0.00 0.00 0.00 0.00 0.00 0.00 0.00 0.00 0.00 0.00 0.00 0.00 0.00 0.00 0.00 0.00 0.02 0.03 0.02 0.00 0.00 0.00 0.01 0.02 0.01 0.03 0.04 0.05
0.04 0.07 0.08 0.11 0.15 0.08 0.01 0.06 0.12 0.13 0.11 0.04 0.01 0.01 0.00 0.00 0.00 0.00 0.00 0.00 0.00 0.00 0.00 0.00 0.00 0.00 0.00 0.00 0.00 0.00 0.00 0.00 0.02 0.05 0.03 0.01 0.01 0.02 0.02 0.03 0.05 0.08 0.14
0.05 0.08 0.10 0.12 0.19 0.09 0.02 0.03 0.11 0.15 0.09 0.05 0.02 0.00 0.00 0.00 0.01 0.00 0.00 0.00 0.00 0.00 0.00 0.00 0.01 0.00 0.00 0.00 0.00 0.00 0.00 0.01 0.02 0.04 0.04 0.01 0.03 0.04 0.05 0.12 0.20 0.15 0.15